CZ-6A DEB

Satellite information

Favourite Embed

Satellite Type and Status

DEBRISIN ORBIT

Key statistics

Satellite CZ-6A DEB at a glance.

Uptime

969

Days in orbit

Revolutions

≈ 14.2

Per day

Orbit

SSO

Sun Synchronous Orbit

Inclination

98.8

Latest

Satellite identification and parameters

Extended collection of information and parameters for CZ-6A DEB.

Object identification

Identified? True

Debris? True

Object name: CZ-6A DEB

International designator: 2022-151ADW

Object number (NORAD): 56598

Object ID (CCSDS): 56598

Country: PEOPLES REPUBLIC OF CHINA (PRC)

Current information (Y/N): Y

RCS size: SMALL

Orbital parameters

Period: 101.278 minutes

Inclination: 98.7871 deg

SMA: 7197.307 km

Apoapsis: 850.419 km

Periapsis: 787.925 km

RAAN: 201.6973 deg

Eccentricy: 0.0043415

Argument of periapsis: 261.4245 deg

Mean anomaly: 98.2011 deg

Mean motion: 14.21830088 rev/day

Mean motion (dot): 0.00001057 rev/day2

B* drag term: 0.00049554 1/REarth

Two-line elements (TLE)

Creation date: July 6, 2025, 6:05 p.m.

Reference frame: TEME

Reference center: EARTH

Epoch: July 6, 2025, 12:13 p.m. UTC

TLE line 0: 0 CZ-6A DEB

TLE line 1: 1 56598U 22151ADW 25187.50972221 .00001057 00000-0 49554-3 0 9998

TLE line 2: 2 56598 98.7871 201.6973 0043415 261.4245 98.2011 14.21830088114310

Live tracking on map

Real-time ground track for satellite CZ-6A DEB.

In-orbit conjunctions

A list of the most updated potential collisions computed for object CZ-6A DEB.

Target Orbit TCA Probability of collision Miss distance Type
THOR BURNER 2 R/B SSO 2025-02-06 04:02:42 0.000246549 281.0 (m) ROCKET BODY
DELTA 1 DEB SSO 2024-06-13 10:26:18 0.0002788645 117.0 (m) DEBRIS

Associated space launch

Chinese satellite reported for atmospheric/ocean/environmental/spatial parameter research purposes, details TBD.

CZ-6A DEB was lifted into orbit during the mission ‘Long March 6A | Yunhai 3’, on board a Long March 6A space rocket.

The launch took place on Nov. 11, 2022, 10:52 p.m. from Launch Complex 9A.

For more information about the launch, click the button.

Launch to space Long March 6A | Yunhai 3
Long March 6A | Yunhai 3

Agency: N/A

Status: Launch Successful

Launch date: Nov. 11, 2022, 10:52 p.m. UTC

Rocket: Long March 6A

Launch pad: Launch Complex 9A

Location: Taiyuan Satellite Launch Center, People's Republic of China

...

Latest news about this satellite

There are no fresh news available about this satellite. Check back as we update our databases every day.


Newsletter sign-up

Weekly statistics, charts and insights to help you stay on top of the space industry.